TimeCDT,TemperatureF,Dew PointF,Humidity,Sea Level PressureIn,VisibilityMPH,Wind Direction,Wind SpeedMPH,Gust SpeedMPH,PrecipitationIn,Events,Conditions,WindDirDegrees,DateUTC
12:15 AM,69.8,66.2,88,30.07,10.0,Calm,Calm,-,N/A,,Scattered Clouds,0,2013-07-06 05:15:00
12:35 AM,69.8,66.2,88,30.06,10.0,East,3.5,-,N/A,,Partly Cloudy,80,2013-07-06 05:35:00
12:55 AM,69.8,66.2,88,30.05,10.0,East,4.6,-,N/A,,Clear,90,2013-07-06 05:55:00
1:15 AM,71.6,66.2,83,30.05,10.0,East,3.5,-,N/A,,Clear,90,2013-07-06 06:15:00
1:55 AM,71.6,66.2,83,30.06,10.0,Calm,Calm,-,N/A,,Clear,0,2013-07-06 06:55:00
2:15 AM,71.6,66.2,83,30.06,10.0,SSE,4.6,-,N/A,,Clear,150,2013-07-06 07:15:00
2:35 AM,71.6,66.2,83,30.06,10.0,Calm,Calm,-,N/A,,Scattered Clouds,0,2013-07-06 07:35:00
2:55 AM,71.6,66.2,83,30.06,10.0,ESE,3.5,-,N/A,,Scattered Clouds,120,2013-07-06 07:55:00
3:15 AM,71.6,66.2,83,30.06,10.0,SSE,4.6,-,N/A,,Clear,150,2013-07-06 08:15:00
3:35 AM,71.6,66.2,83,30.06,10.0,SE,4.6,-,N/A,,Mostly Cloudy,140,2013-07-06 08:35:00
3:55 AM,71.6,66.2,83,30.06,10.0,SE,5.8,-,N/A,,Overcast,130,2013-07-06 08:55:00
4:15 AM,71.6,66.2,83,30.06,10.0,ESE,3.5,-,N/A,,Overcast,120,2013-07-06 09:15:00
4:35 AM,71.6,66.2,83,30.06,10.0,SE,6.9,-,N/A,,Overcast,130,2013-07-06 09:35:00
4:55 AM,71.6,66.2,83,30.07,10.0,SE,6.9,-,N/A,,Overcast,130,2013-07-06 09:55:00
5:15 AM,71.6,66.2,83,30.07,10.0,SSE,6.9,-,N/A,,Overcast,150,2013-07-06 10:15:00
5:35 AM,71.6,66.2,83,30.07,10.0,SE,8.1,-,N/A,,Overcast,130,2013-07-06 10:35:00
5:55 AM,69.8,66.2,88,30.07,10.0,SE,6.9,-,N/A,,Overcast,140,2013-07-06 10:55:00
6:35 AM,69.8,64.4,83,30.08,10.0,SSE,4.6,-,N/A,,Mostly Cloudy,150,2013-07-06 11:35:00
6:55 AM,69.8,64.4,83,30.09,10.0,SSE,4.6,-,N/A,,Mostly Cloudy,150,2013-07-06 11:55:00
7:15 AM,71.6,64.4,78,30.09,10.0,South,6.9,-,N/A,,Overcast,190,2013-07-06 12:15:00
7:35 AM,69.8,64.4,83,30.09,10.0,SSW,5.8,-,N/A,,Overcast,200,2013-07-06 12:35:00
7:55 AM,71.6,64.4,78,30.09,10.0,SSW,9.2,-,N/A,,Overcast,210,2013-07-06 12:55:00
8:15 AM,71.6,64.4,78,30.10,10.0,South,6.9,-,N/A,,Mostly Cloudy,180,2013-07-06 13:15:00
8:35 AM,73.4,64.4,73,30.10,10.0,South,6.9,-,N/A,,Overcast,170,2013-07-06 13:35:00
8:55 AM,75.2,64.4,69,30.09,10.0,South,8.1,-,N/A,,Overcast,170,2013-07-06 13:55:00
9:15 AM,75.2,66.2,73,30.09,10.0,South,10.4,-,N/A,,Mostly Cloudy,180,2013-07-06 14:15:00
9:35 AM,75.2,66.2,73,30.09,10.0,South,6.9,-,N/A,,Mostly Cloudy,180,2013-07-06 14:35:00
9:55 AM,75.2,66.2,73,30.09,10.0,South,3.5,-,N/A,,Overcast,170,2013-07-06 14:55:00
10:15 AM,78.8,66.2,65,30.10,10.0,SSW,6.9,-,N/A,,Overcast,210,2013-07-06 15:15:00
10:35 AM,60.8,-9999,N/A,30.10,10.0,South,8.1,-,N/A,,Mostly Cloudy,170,2013-07-06 15:35:00
10:55 AM,60.8,-9999,N/A,30.09,10.0,South,8.1,-,N/A,,Scattered Clouds,180,2013-07-06 15:55:00
11:15 AM,64.4,64.4,100,30.09,10.0,SSE,5.8,-,N/A,,Scattered Clouds,150,2013-07-06 16:15:00
11:35 AM,80.6,66.2,61,30.09,10.0,SSW,6.9,-,N/A,,Mostly Cloudy,210,2013-07-06 16:35:00
11:55 AM,71.6,66.2,83,30.09,10.0,South,6.9,-,N/A,,Mostly Cloudy,180,2013-07-06 16:55:00
12:15 PM,80.6,66.2,61,30.08,10.0,SSW,6.9,-,N/A,,Mostly Cloudy,200,2013-07-06 17:15:00
12:35 PM,82.4,68.0,62,30.08,10.0,South,8.1,-,N/A,,Mostly Cloudy,180,2013-07-06 17:35:00
12:55 PM,80.6,66.2,61,30.07,10.0,SSW,8.1,-,N/A,,Mostly Cloudy,210,2013-07-06 17:55:00
1:15 PM,82.4,66.2,58,30.06,10.0,SW,9.2,-,N/A,,Scattered Clouds,220,2013-07-06 18:15:00
1:35 PM,82.4,66.2,58,30.06,10.0,SSE,5.8,-,N/A,,Scattered Clouds,150,2013-07-06 18:35:00
1:55 PM,84.2,66.2,55,30.05,10.0,South,4.6,-,N/A,,Partly Cloudy,180,2013-07-06 18:55:00
2:15 PM,84.2,66.2,55,30.05,10.0,South,3.5,-,N/A,,Clear,170,2013-07-06 19:15:00
2:35 PM,84.2,66.2,55,30.04,10.0,South,5.8,-,N/A,,Partly Cloudy,190,2013-07-06 19:35:00
2:55 PM,75.2,64.4,69,30.03,10.0,SW,3.5,-,N/A,,Partly Cloudy,220,2013-07-06 19:55:00
3:35 PM,69.8,64.4,83,30.03,10.0,SSW,4.6,-,N/A,,Clear,200,2013-07-06 20:35:00
3:55 PM,86.0,64.4,48,30.02,10.0,South,5.8,-,N/A,,Clear,180,2013-07-06 20:55:00
4:15 PM,86.0,64.4,48,30.02,10.0,SSW,6.9,-,N/A,,Clear,210,2013-07-06 21:15:00
4:35 PM,86.0,64.4,48,30.02,10.0,East,3.5,-,N/A,,Scattered Clouds,100,2013-07-06 21:35:00
4:55 PM,84.2,66.2,55,30.02,10.0,ESE,3.5,-,N/A,,Mostly Cloudy,120,2013-07-06 21:55:00
5:15 PM,84.2,64.4,51,30.02,10.0,SE,4.6,-,N/A,,Mostly Cloudy,130,2013-07-06 22:15:00
5:35 PM,84.2,68.0,58,30.01,10.0,SE,3.5,-,N/A,Thunderstorm,Overcast,130,2013-07-06 22:35:00
5:55 PM,80.6,69.8,70,30.01,10.0,East,10.4,-,N/A,Thunderstorm,Scattered Clouds,80,2013-07-06 22:55:00
6:15 PM,80.6,66.2,61,30.01,10.0,ESE,10.4,18.4,N/A,Thunderstorm,Scattered Clouds,110,2013-07-06 23:15:00
6:55 PM,64.4,64.4,100,30.02,10.0,ENE,5.8,-,N/A,Thunderstorm,Thunderstorm,70,2013-07-06 23:55:00
7:15 PM,64.4,64.4,100,30.01,10.0,East,6.9,-,N/A,,Scattered Clouds,80,2013-07-07 00:15:00
7:35 PM,71.6,68.0,88,30.02,10.0,ENE,4.6,-,N/A,Thunderstorm,Scattered Clouds,70,2013-07-07 00:35:00
7:55 PM,75.2,68.0,78,30.04,10.0,East,3.5,-,N/A,Thunderstorm,Mostly Cloudy,80,2013-07-07 00:55:00
8:15 PM,75.2,68.0,78,30.05,10.0,North,8.1,-,N/A,Thunderstorm,Overcast,10,2013-07-07 01:15:00
8:35 PM,73.4,60.8,65,30.06,10.0,North,11.5,18.4,N/A,Thunderstorm,Thunderstorm,10,2013-07-07 01:35:00
8:55 PM,68.0,57.2,68,30.09,4.0,WNW,8.1,46.0,0.43,Thunderstorm,Thunderstorm,290,2013-07-07 01:55:00
9:55 PM,66.2,62.6,88,30.10,10.0,West,6.9,-,0.13,Thunderstorm,Mostly Cloudy,260,2013-07-07 02:55:00
10:15 PM,64.4,59.0,83,30.09,10.0,WSW,8.1,17.3,N/A,Thunderstorm,Thunderstorm,250,2013-07-07 03:15:00
10:35 PM,64.4,60.8,88,30.09,10.0,East,3.5,-,N/A,Thunderstorm,Thunderstorm,80,2013-07-07 03:35:00
10:55 PM,64.4,60.8,88,30.08,10.0,NNE,3.5,-,N/A,Thunderstorm,Clear,30,2013-07-07 03:55:00
11:15 PM,64.4,60.8,88,30.07,10.0,ENE,5.8,-,N/A,,Clear,60,2013-07-07 04:15:00
11:35 PM,64.4,60.8,88,30.06,10.0,NNE,5.8,-,N/A,,Clear,20,2013-07-07 04:35:00
11:55 PM,64.4,60.8,88,30.05,10.0,Calm,Calm,-,N/A,,Clear,0,2013-07-07 04:55:00